Regional Weather Roundup
Issued by NWS

Home | Current Version | Previous Version | Text Only | Print | Product List | Glossary On
Versions: 1 2 3 4 5 6 7 8 9 10 11 12 13 14 15 16 17 18 19 20 21 22 23 24 25 26 27 28 29 30 31 32 33 34 35 36 37 38 39 40 41 42 43 44 45 46 47 48 49 50
000
ASUS43 KLSX 280659
RWRMO

WEATHER SUMMARY FOR MISSOURI
NATIONAL WEATHER SERVICE SPRINGFIELD MO
100 AM CST WED JAN 28 2015

NOTE: "FAIR" INDICATES FEW OR NO CLOUDS BELOW 12,000 FEET WITH NO
       SIGNIFICANT WEATHER AND/OR OBSTRUCTIONS TO VISIBILITY.
       CURRENT SKY AND/OR WEATHER CONDITIONS ARE NOT AVAILABLE FOR
       CHILLICOTHE AND FARMINGTON.

MOZ001>031-035>038-043-044-053-054-280800-
...NORTHERN AND WESTERN MISSOURI...

CITY           SKY/WX    TMP DP  RH WIND       PRES   REMARKS
KANSAS CTY INT CLEAR     40  31  70 SE15      30.02F
KANSAS C DTWN  CLEAR     43  30  60 E6        30.03F
LEE`S SUMMIT   CLEAR     42  30  62 SE12G20   30.04F
ST JOSEPH      CLEAR     40  31  70 SE9       30.03F
CHILLICOTHE      N/A     34  30  85 SE8       30.10F WCI  27
KIRKSVILLE     PTCLDY    28  27  96 SE10      30.15F FOG     WCI  19

$$
MOZ066>068-077>081-088>096-101>105-280800-
...SOUTHWEST MISSOURI...

CITY           SKY/WX    TMP DP  RH WIND       PRES   REMARKS
SPRINGFIELD    CLEAR     47  29  49 SE16      30.09F
JOPLIN         CLEAR     50  28  42 SE10      30.05F

$$
MOZ032>034-039>042-045>050-055>058-069>072-280800-
...CENTRAL MISSOURI...

CITY           SKY/WX    TMP DP  RH WIND       PRES   REMARKS
COLUMBIA       CLEAR     33  29  85 SE9       30.16S WCI  25
JEFFERSON CITY CLEAR     37  30  75 E10       30.18S WCI  30
ROLLA          CLEAR     33  28  81 SE10      30.14F WCI  25
SEDALIA        CLEAR     37  30  75 SE12      30.11F WCI  29
WHITEMAN AFB   CLEAR     39  31  73 SE8       30.07F
OSAGE BEACH    CLEAR     37  28  70 E7        30.13F

$$
MOZ051-052-059>065-280800-
...EAST CENTRAL MISSOURI...

CITY           SKY/WX    TMP DP  RH WIND       PRES   REMARKS
ST LOUIS INTL  CLEAR     29  24  82 SE7       30.25S WCI  22
SPIRIT OF STL  CLEAR     27  25  92 E5        30.23F WCI  22
ST CHARLES     CLEAR     27  25  92 SE5       30.25S WCI  22

$$
MOZ072>076-082>087-097>100-106>115-280800-
...SOUTH CENTRAL AND SOUTHEAST MISSOURI...

CITY           SKY/WX    TMP DP  RH WIND       PRES   REMARKS
CAPE GIRARDEAU CLEAR     29  27  92 NE3       30.26R
FARMINGTON     CLEAR     28  25  86 MISG      30.25F
POPLAR BLUFF   CLEAR     33  28  81 E5        30.24F WCI  29
WEST PLAINS    CLEAR     37  31  78 SE7       30.20S

$$


USA.gov is the U.S. government's official web portal to all federal, state and local government web resources and services.